User: anonymous   Login
Location: Csohesd
(46.2500°N, 22.6167°E)
Time: 23:11:02
(UTC+00:00)
Language:

CZ-2C R/B - Orbit

View from above orbital plane
View from above orbital plane
View from above satellite
View from above satellite

Ground track
Ground track

The orbit data is extracted from the following two-line orbital elements,

1 28480U 04046B   22026.59606155  .00000112  00000-0  58202-4 0  9990
2 28480  98.0552  25.6217 0140581 282.7019 184.3264 14.25783698894220
Epoch (UTC): 26 January 2022 14:18:19
Eccentricity: 0.0140581
inclination: 98.0552°
perigee height: 705 km
apogee height: 907 km
right ascension of ascending node: 25.6217°
argument of perigee: 282.7019°
revolutions per day: 14.25783698
mean anomaly at epoch: 184.3264°
orbit number at epoch: 89422

The dashed part of the orbit path shows where the satellite is in the earth's shadow,  

DLR